Time,TemperatureF,DewpointF,PressureIn,WindDirection,WindDirectionDegrees,WindSpeedMPH,WindSpeedGustMPH,Humidity,HourlyPrecipIn,Conditions,Clouds,dailyrainin,SoftwareType,DateUTC
2013-03-23 00:00:00,41.8,19.2,29.34,West,260,5.8,5.8,40,0.00,CLR,,0.00,WeatherDisplay:10.37,2013-03-23 04:00:00,
2013-03-23 00:01:00,41.8,19.2,29.34,WSW,256,5.8,5.8,40,0.00,CLR,,0.00,WeatherDisplay:10.37,2013-03-23 04:01:00,
2013-03-23 00:06:00,41.8,18.6,29.34,WSW,256,5.8,5.8,39,0.00,CLR,,0.00,WeatherDisplay:10.37,2013-03-23 04:06:00,
2013-03-23 00:11:00,41.8,18.6,29.34,WSW,258,6.9,6.9,39,0.00,CLR,,0.00,WeatherDisplay:10.37,2013-03-23 04:11:00,
2013-03-23 00:16:00,41.6,18.4,29.34,WSW,248,4.6,4.6,39,0.00,CLR,,0.00,WeatherDisplay:10.37,2013-03-23 04:16:00,
2013-03-23 00:21:00,41.5,18.4,29.34,SSW,206,3.5,3.5,39,0.00,CLR,,0.00,WeatherDisplay:10.37,2013-03-23 04:21:00,
2013-03-23 00:26:00,41.5,18.4,29.34,WSW,246,5.8,5.8,39,0.00,CLR,,0.00,WeatherDisplay:10.37,2013-03-23 04:26:00,
2013-03-23 00:31:00,41.3,18.2,29.34,WSW,257,3.5,3.5,39,0.00,CLR,,0.00,WeatherDisplay:10.37,2013-03-23 04:31:00,
2013-03-23 00:36:00,41.3,18.2,29.34,WSW,250,3.5,3.5,39,0.00,CLR,,0.00,WeatherDisplay:10.37,2013-03-23 04:36:00,
2013-03-23 00:41:00,41.2,18.1,29.34,SW,220,5.8,5.8,39,0.00,CLR,,0.00,WeatherDisplay:10.37,2013-03-23 04:41:00,
2013-03-23 00:46:00,41.2,18.1,29.34,West,261,3.5,3.5,39,0.00,CLR,,0.00,WeatherDisplay:10.37,2013-03-23 04:46:00,
2013-03-23 00:52:00,41.2,18.1,29.34,West,261,5.8,5.8,39,0.00,CLR,,0.00,WeatherDisplay:10.37,2013-03-23 04:52:00,
2013-03-23 00:57:00,41.2,18.7,29.34,West,260,3.5,3.5,40,0.00,CLR,,0.00,WeatherDisplay:10.37,2013-03-23 04:57:00,
2013-03-23 01:02:00,41.1,18.6,29.34,WSW,244,2.3,2.3,40,0.00,CLR,,0.00,WeatherDisplay:10.37,2013-03-23 05:02:00,
2013-03-23 01:07:00,40.9,18.4,29.34,SW,236,3.5,3.5,40,0.00,CLR,,0.00,WeatherDisplay:10.37,2013-03-23 05:07:00,
2013-03-23 01:12:00,40.8,18.3,29.34,WSW,246,3.5,3.5,40,0.00,CLR,,0.00,WeatherDisplay:10.37,2013-03-23 05:12:00,
2013-03-23 01:17:00,40.8,18.9,29.34,WSW,256,6.9,6.9,41,0.00,CLR,,0.00,WeatherDisplay:10.37,2013-03-23 05:17:00,
2013-03-23 01:22:00,40.6,18.7,29.34,WSW,240,3.5,3.5,41,0.00,CLR,,0.00,WeatherDisplay:10.37,2013-03-23 05:22:00,
2013-03-23 01:27:00,40.8,18.9,29.34,WSW,244,6.0,6.0,41,0.00,CLR,,0.00,WeatherDisplay:10.37,2013-03-23 05:27:00,
2013-03-23 01:32:00,40.8,18.9,29.34,WSW,240,5.8,5.8,41,0.00,CLR,,0.00,WeatherDisplay:10.37,2013-03-23 05:32:00,
2013-03-23 01:38:00,40.6,18.7,29.34,WSW,251,6.0,6.0,41,0.00,CLR,,0.00,WeatherDisplay:10.37,2013-03-23 05:38:00,
2013-03-23 01:43:00,40.6,19.3,29.34,WSW,237,3.5,3.5,42,0.00,CLR,,0.00,WeatherDisplay:10.37,2013-03-23 05:43:00,
2013-03-23 01:48:00,40.6,19.3,29.34,SW,227,2.3,2.3,42,0.00,CLR,,0.00,WeatherDisplay:10.37,2013-03-23 05:48:00,
2013-03-23 01:53:00,40.6,19.8,29.34,SW,230,3.5,3.5,43,0.00,CLR,,0.00,WeatherDisplay:10.37,2013-03-23 05:53:00,
2013-03-23 01:58:00,40.5,19.7,29.34,WSW,237,0.0,0.0,43,0.00,CLR,,0.00,WeatherDisplay:10.37,2013-03-23 05:58:00,
2013-03-23 02:03:00,40.5,19.7,29.34,WSW,237,0.0,0.0,43,0.00,CLR,,0.00,WeatherDisplay:10.37,2013-03-23 06:03:00,
2013-03-23 02:08:00,40.3,19.5,29.34,WSW,237,1.1,1.1,43,0.00,CLR,,0.00,WeatherDisplay:10.37,2013-03-23 06:08:00,
2013-03-23 02:13:00,40.3,20.1,29.34,WSW,237,1.1,0.0,44,0.00,CLR,,0.00,WeatherDisplay:10.37,2013-03-23 06:13:00,
2013-03-23 02:18:00,40.2,20.0,29.34,WSW,240,2.3,2.3,44,0.00,CLR,,0.00,WeatherDisplay:10.37,2013-03-23 06:18:00,
2013-03-23 02:23:00,40.2,20.0,29.34,WSW,254,1.1,0.0,44,0.00,CLR,,0.00,WeatherDisplay:10.37,2013-03-23 06:23:00,
2013-03-23 02:28:00,40.2,20.0,29.34,WSW,247,0.0,0.1,44,0.00,CLR,,0.00,WeatherDisplay:10.37,2013-03-23 06:28:00,
2013-03-23 02:33:00,40.3,20.1,29.34,WSW,247,1.1,1.1,44,0.00,CLR,,0.00,WeatherDisplay:10.37,2013-03-23 06:33:00,
2013-03-23 02:38:00,40.3,20.1,29.34,WSW,247,2.3,0.0,44,0.00,CLR,,0.00,WeatherDisplay:10.37,2013-03-23 06:38:00,
2013-03-23 02:43:00,40.2,20.5,29.33,WSW,247,3.5,3.5,45,0.00,CLR,,0.00,WeatherDisplay:10.37,2013-03-23 06:43:00,
2013-03-23 02:48:00,40.1,20.4,29.33,WSW,247,0.0,0.3,45,0.00,CLR,,0.00,WeatherDisplay:10.37,2013-03-23 06:48:00,
2013-03-23 02:53:00,39.9,20.8,29.33,WSW,247,1.1,1.1,46,0.00,CLR,,0.00,WeatherDisplay:10.37,2013-03-23 06:53:00,
2013-03-23 02:58:00,39.8,20.7,29.33,WSW,247,0.0,0.0,46,0.00,CLR,,0.00,WeatherDisplay:10.37,2013-03-23 06:58:00,
2013-03-23 03:03:00,39.5,20.9,29.33,WSW,247,0.0,0.0,47,0.00,CLR,,0.00,WeatherDisplay:10.37,2013-03-23 07:03:00,
2013-03-23 03:08:00,39.1,22.0,29.33,WSW,247,0.0,0.0,50,0.00,CLR,,0.00,WeatherDisplay:10.37,2013-03-23 07:08:00,
2013-03-23 03:13:00,38.3,23.1,29.33,WSW,247,0.0,0.0,54,0.00,CLR,,0.00,WeatherDisplay:10.37,2013-03-23 07:13:00,
2013-03-23 03:18:00,37.5,21.9,29.33,WSW,247,0.0,0.0,53,0.00,CLR,,0.00,WeatherDisplay:10.37,2013-03-23 07:18:00,
2013-03-23 03:23:00,37.0,21.4,29.33,WSW,247,1.1,1.1,53,0.00,CLR,,0.00,WeatherDisplay:10.37,2013-03-23 07:23:00,
2013-03-23 03:28:00,36.9,21.8,29.33,WSW,247,0.0,0.1,54,0.00,CLR,,0.00,WeatherDisplay:10.37,2013-03-23 07:28:00,
2013-03-23 03:33:00,36.6,22.4,29.33,WSW,247,0.0,0.0,56,0.00,CLR,,0.00,WeatherDisplay:10.37,2013-03-23 07:33:00,
2013-03-23 03:38:00,36.5,22.7,29.33,WSW,247,0.0,0.0,57,0.00,CLR,,0.00,WeatherDisplay:10.37,2013-03-23 07:38:00,
2013-03-23 03:43:00,36.2,22.8,29.33,North,6,1.0,1.2,58,0.00,CLR,,0.00,WeatherDisplay:10.37,2013-03-23 07:43:00,
2013-03-23 03:48:00,36.0,22.2,29.33,North,6,2.3,0.0,57,0.00,CLR,,0.00,WeatherDisplay:10.37,2013-03-23 07:48:00,
2013-03-23 03:53:00,36.0,21.4,29.33,North,6,0.0,0.0,55,0.00,CLR,,0.00,WeatherDisplay:10.37,2013-03-23 07:53:00,
2013-03-23 03:58:00,36.0,21.8,29.33,North,6,0.0,0.0,56,0.00,CLR,,0.00,WeatherDisplay:10.37,2013-03-23 07:58:00,
2013-03-23 04:03:00,36.2,21.6,29.33,North,6,0.0,0.0,55,0.00,CLR,,0.00,WeatherDisplay:10.37,2013-03-23 08:03:00,
2013-03-23 04:08:00,36.2,22.4,29.33,North,6,0.0,0.0,57,0.00,CLR,,0.00,WeatherDisplay:10.37,2013-03-23 08:08:00,
2013-03-23 04:13:00,36.2,22.8,29.33,North,6,0.0,0.0,58,0.00,CLR,,0.00,WeatherDisplay:10.37,2013-03-23 08:13:00,
2013-03-23 04:18:00,36.2,22.4,29.33,North,6,0.0,0.0,57,0.00,CLR,,0.00,WeatherDisplay:10.37,2013-03-23 08:18:00,
2013-03-23 04:23:00,36.3,22.5,29.33,North,6,0.0,0.0,57,0.00,CLR,,0.00,WeatherDisplay:10.37,2013-03-23 08:23:00,
2013-03-23 04:28:00,36.3,22.9,29.33,North,6,0.0,0.0,58,0.00,CLR,,0.00,WeatherDisplay:10.37,2013-03-23 08:28:00,
2013-03-23 04:33:00,36.5,22.7,29.33,North,6,0.0,0.0,57,0.00,CLR,,0.00,WeatherDisplay:10.37,2013-03-23 08:33:00,
2013-03-23 04:38:00,36.8,23.0,29.33,North,6,0.0,0.0,57,0.00,CLR,,0.00,WeatherDisplay:10.37,2013-03-23 08:38:00,
2013-03-23 04:43:00,36.9,22.7,29.33,North,6,0.0,0.0,56,0.00,CLR,,0.00,WeatherDisplay:10.37,2013-03-23 08:43:00,
2013-03-23 04:48:00,37.0,23.2,29.33,North,6,0.0,0.0,57,0.00,CLR,,0.00,WeatherDisplay:10.37,2013-03-23 08:48:00,
2013-03-23 04:53:00,37.2,21.2,29.33,North,6,0.0,0.0,52,0.00,CLR,,0.00,WeatherDisplay:10.37,2013-03-23 08:53:00,
2013-03-23 04:58:00,37.5,23.2,29.33,North,6,0.0,0.0,56,0.00,CLR,,0.00,WeatherDisplay:10.37,2013-03-23 08:58:00,
2013-03-23 05:03:00,37.6,21.5,29.33,North,6,0.0,0.0,52,0.00,CLR,,0.00,WeatherDisplay:10.37,2013-03-23 09:03:00,
2013-03-23 05:08:00,37.8,23.9,29.33,North,6,1.1,1.1,57,0.00,CLR,,0.00,WeatherDisplay:10.37,2013-03-23 09:08:00,
2013-03-23 05:13:00,38.0,21.0,29.33,NW,312,2.3,0.0,50,0.00,CLR,,0.00,WeatherDisplay:10.37,2013-03-23 09:13:00,
2013-03-23 05:18:00,38.5,20.0,29.33,NW,311,0.0,0.0,47,0.00,CLR,,0.00,WeatherDisplay:10.37,2013-03-23 09:18:00,
2013-03-23 05:23:00,38.8,20.8,29.33,NW,311,0.0,0.0,48,0.00,CLR,,0.00,WeatherDisplay:10.37,2013-03-23 09:23:00,
2013-03-23 05:28:00,38.9,20.9,29.33,NW,311,0.0,0.0,48,0.00,CLR,,0.00,WeatherDisplay:10.37,2013-03-23 09:28:00,
2013-03-23 05:33:00,38.9,19.9,29.33,NW,311,0.0,0.0,46,0.00,CLR,,0.00,WeatherDisplay:10.37,2013-03-23 09:33:00,
2013-03-23 05:38:00,39.1,21.0,29.33,NW,311,0.0,0.0,48,0.00,CLR,,0.00,WeatherDisplay:10.37,2013-03-23 09:38:00,
2013-03-23 05:43:00,38.9,21.8,29.33,NW,311,0.0,0.0,50,0.00,CLR,,0.00,WeatherDisplay:10.37,2013-03-23 09:43:00,
2013-03-23 05:48:00,38.9,21.8,29.33,NW,311,0.0,0.0,50,0.00,CLR,,0.00,WeatherDisplay:10.37,2013-03-23 09:48:00,
2013-03-23 05:53:00,38.9,22.8,29.33,NW,311,0.0,0.0,52,0.00,CLR,,0.00,WeatherDisplay:10.37,2013-03-23 09:53:00,
2013-03-23 05:58:00,38.8,24.0,29.33,NW,311,0.0,0.0,55,0.00,CLR,,0.00,WeatherDisplay:10.37,2013-03-23 09:58:00,
2013-03-23 06:03:00,38.6,24.2,29.33,NW,311,0.0,0.0,56,0.00,CLR,,0.00,WeatherDisplay:10.37,2013-03-23 10:03:00,
2013-03-23 06:08:00,38.6,24.2,29.33,NW,311,0.0,0.0,56,0.00,CLR,,0.00,WeatherDisplay:10.37,2013-03-23 10:08:00,
2013-03-23 06:13:00,38.5,21.9,29.34,NW,311,0.0,0.0,51,0.00,CLR,,0.00,WeatherDisplay:10.37,2013-03-23 10:13:00,
2013-03-23 06:18:00,38.5,23.3,29.34,NW,311,0.0,0.0,54,0.00,CLR,,0.00,WeatherDisplay:10.37,2013-03-23 10:18:00,
2013-03-23 06:23:00,38.5,23.7,29.34,NW,311,0.0,0.0,55,0.00,CLR,,0.00,WeatherDisplay:10.37,2013-03-23 10:23:00,
2013-03-23 06:28:00,38.3,22.6,29.34,NW,311,0.0,0.0,53,0.00,CLR,,0.00,WeatherDisplay:10.37,2013-03-23 10:28:00,
2013-03-23 06:33:00,38.3,21.3,29.34,NW,311,0.0,0.0,50,0.00,CLR,,0.00,WeatherDisplay:10.37,2013-03-23 10:33:00,
2013-03-23 06:38:00,38.5,22.4,29.34,NW,311,0.0,0.0,52,0.00,CLR,,0.00,WeatherDisplay:10.37,2013-03-23 10:38:00,
2013-03-23 06:43:00,38.6,22.5,29.35,NW,311,0.0,0.0,52,0.00,CLR,,0.00,WeatherDisplay:10.37,2013-03-23 10:43:00,
2013-03-23 06:48:00,38.6,22.5,29.35,NW,311,0.0,0.0,52,0.00,CLR,,0.00,WeatherDisplay:10.37,2013-03-23 10:48:00,
2013-03-23 06:53:00,38.5,21.9,29.35,NW,311,0.0,0.0,51,0.00,CLR,,0.00,WeatherDisplay:10.37,2013-03-23 10:53:00,
2013-03-23 06:58:00,38.5,21.5,29.35,NW,311,0.0,0.0,50,0.00,CLR,,0.00,WeatherDisplay:10.37,2013-03-23 10:58:00,
2013-03-23 07:03:00,38.5,20.0,29.35,NW,311,0.0,0.0,47,0.00,CLR,,0.00,WeatherDisplay:10.37,2013-03-23 11:03:00,
2013-03-23 07:08:00,38.3,20.8,29.35,NW,311,0.0,0.0,49,0.00,CLR,,0.00,WeatherDisplay:10.37,2013-03-23 11:08:00,
2013-03-23 07:13:00,38.3,20.8,29.35,NW,311,0.0,0.0,49,0.00,CLR,,0.00,WeatherDisplay:10.37,2013-03-23 11:13:00,
2013-03-23 07:18:00,38.2,20.7,29.35,NW,311,0.0,0.0,49,0.00,CLR,,0.00,WeatherDisplay:10.37,2013-03-23 11:18:00,
2013-03-23 07:23:00,38.0,20.5,29.35,NW,311,0.0,0.0,49,0.00,CLR,,0.00,WeatherDisplay:10.37,2013-03-23 11:23:00,
2013-03-23 07:28:00,37.8,20.8,29.35,NW,311,0.0,0.0,50,0.00,CLR,,0.00,WeatherDisplay:10.37,2013-03-23 11:28:00,
2013-03-23 07:33:00,37.6,22.4,29.35,NW,311,0.0,0.0,54,0.00,CLR,,0.00,WeatherDisplay:10.37,2013-03-23 11:33:00,
2013-03-23 07:38:00,37.3,22.2,29.35,NW,311,0.0,0.0,54,0.00,CLR,,0.00,WeatherDisplay:10.37,2013-03-23 11:38:00,
2013-03-23 07:43:00,37.2,21.6,29.36,NW,311,0.0,0.0,53,0.00,CLR,,0.00,WeatherDisplay:10.37,2013-03-23 11:43:00,
2013-03-23 07:48:00,37.0,20.5,29.36,NNW,346,0.0,0.0,51,0.00,CLR,,0.00,WeatherDisplay:10.37,2013-03-23 11:48:00,
2013-03-23 07:53:00,37.0,22.7,29.36,NNW,346,0.0,0.0,56,0.00,CLR,,0.00,WeatherDisplay:10.37,2013-03-23 11:53:00,
2013-03-23 07:58:00,37.0,21.9,29.37,NNW,346,0.0,0.0,54,0.00,CLR,,0.00,WeatherDisplay:10.37,2013-03-23 11:58:00,
2013-03-23 08:03:00,37.2,22.9,29.37,NNW,346,2.3,2.3,56,0.00,CLR,,0.00,WeatherDisplay:10.37,2013-03-23 12:03:00,
2013-03-23 08:08:00,37.3,20.8,29.37,NNE,24,2.3,2.3,51,0.00,CLR,,0.00,WeatherDisplay:10.37,2013-03-23 12:08:00,
2013-03-23 08:14:00,37.6,20.6,29.36,NNE,24,2.3,2.3,50,0.00,CLR,,0.00,WeatherDisplay:10.37,2013-03-23 12:14:00,
2013-03-23 08:19:00,37.9,21.4,29.36,NNE,24,1.1,0.0,51,0.00,CLR,,0.00,WeatherDisplay:10.37,2013-03-23 12:19:00,
2013-03-23 08:24:00,38.0,20.0,29.36,NNE,24,3.5,3.5,48,0.00,CLR,,0.00,WeatherDisplay:10.37,2013-03-23 12:24:00,
2013-03-23 08:29:00,38.2,19.7,29.37,East,80,2.3,2.3,47,0.00,CLR,,0.00,WeatherDisplay:10.37,2013-03-23 12:29:00,
2013-03-23 08:34:00,38.3,19.3,29.37,East,80,3.5,3.5,46,0.00,CLR,,0.00,WeatherDisplay:10.37,2013-03-23 12:34:00,
2013-03-23 08:39:00,38.5,20.0,29.37,East,80,2.3,2.3,47,0.00,CLR,,0.00,WeatherDisplay:10.37,2013-03-23 12:39:00,
2013-03-23 08:44:00,38.8,20.3,29.37,East,80,3.5,3.5,47,0.00,CLR,,0.00,WeatherDisplay:10.37,2013-03-23 12:44:00,
2013-03-23 08:49:00,38.9,20.4,29.37,ENE,59,3.5,3.5,47,0.00,CLR,,0.00,WeatherDisplay:10.37,2013-03-23 12:49:00,
2013-03-23 08:54:00,39.1,21.0,29.37,SSE,152,0.0,0.0,48,0.00,CLR,,0.00,WeatherDisplay:10.37,2013-03-23 12:54:00,
2013-03-23 08:59:00,39.3,21.2,29.37,NE,41,0.0,0.0,48,0.00,CLR,,0.00,WeatherDisplay:10.37,2013-03-23 12:59:00,
2013-03-23 09:04:00,39.6,21.5,29.37,NNE,14,0.0,0.0,48,0.00,CLR,,0.00,WeatherDisplay:10.37,2013-03-23 13:04:00,
2013-03-23 09:09:00,39.8,21.2,29.37,North,8,2.3,2.3,47,0.00,CLR,,0.00,WeatherDisplay:10.37,2013-03-23 13:09:00,
2013-03-23 09:14:00,39.9,20.8,29.38,North,8,1.1,1.1,46,0.00,CLR,,0.00,WeatherDisplay:10.37,2013-03-23 13:14:00,
2013-03-23 09:19:00,40.2,21.0,29.38,NNE,20,2.3,0.0,46,0.00,CLR,,0.00,WeatherDisplay:10.37,2013-03-23 13:19:00,
2013-03-23 09:24:00,40.6,21.4,29.38,NNE,20,0.0,0.0,46,0.00,CLR,,0.00,WeatherDisplay:10.37,2013-03-23 13:24:00,
2013-03-23 09:29:00,40.9,21.7,29.38,NNE,20,0.0,0.0,46,0.00,CLR,,0.00,WeatherDisplay:10.37,2013-03-23 13:29:00,
2013-03-23 09:34:00,41.3,21.5,29.38,NNE,20,2.3,0.0,45,0.00,CLR,,0.00,WeatherDisplay:10.37,2013-03-23 13:34:00,
2013-03-23 09:39:00,41.8,21.5,29.38,NNE,20,0.0,0.1,44,0.00,CLR,,0.00,WeatherDisplay:10.37,2013-03-23 13:39:00,
2013-03-23 09:44:00,42.2,21.3,29.37,NNE,20,2.3,2.3,43,0.00,CLR,,0.00,WeatherDisplay:10.37,2013-03-23 13:44:00,
2013-03-23 09:49:00,42.6,21.1,29.37,NNE,31,4.6,4.6,42,0.00,CLR,,0.00,WeatherDisplay:10.37,2013-03-23 13:49:00,
2013-03-23 09:54:00,42.9,20.8,29.37,NNE,32,3.5,3.5,41,0.00,CLR,,0.00,WeatherDisplay:10.37,2013-03-23 13:54:00,
2013-03-23 09:59:00,43.6,19.6,29.37,NE,51,5.8,5.8,38,0.00,CLR,,0.00,WeatherDisplay:10.37,2013-03-23 13:59:00,
2013-03-23 10:04:00,43.9,19.3,29.37,NE,45,3.5,3.5,37,0.00,CLR,,0.00,WeatherDisplay:10.37,2013-03-23 14:04:00,
2013-03-23 10:09:00,44.2,18.2,29.37,North,8,3.5,3.5,35,0.00,CLR,,0.00,WeatherDisplay:10.37,2013-03-23 14:09:00,
2013-03-23 10:14:00,44.2,16.9,29.38,North,356,4.6,4.6,33,0.00,CLR,,0.00,WeatherDisplay:10.37,2013-03-23 14:14:00,
2013-03-23 10:19:00,44.2,16.9,29.38,North,349,6.9,6.9,33,0.00,CLR,,0.00,WeatherDisplay:10.37,2013-03-23 14:19:00,
2013-03-23 10:24:00,44.3,18.3,29.38,NNE,28,1.1,2.4,35,0.00,CLR,,0.00,WeatherDisplay:10.37,2013-03-23 14:24:00,
2013-03-23 10:29:00,44.3,18.3,29.38,North,356,5.8,5.8,35,0.00,CLR,,0.00,WeatherDisplay:10.37,2013-03-23 14:29:00,
2013-03-23 10:34:00,44.3,18.3,29.38,North,359,0.0,0.0,35,0.00,CLR,,0.00,WeatherDisplay:10.37,2013-03-23 14:34:00,
2013-03-23 10:39:00,44.3,18.3,29.38,North,359,3.5,3.5,35,0.00,CLR,,0.00,WeatherDisplay:10.37,2013-03-23 14:39:00,
2013-03-23 10:44:00,44.3,18.3,29.39,NE,37,4.6,4.6,35,0.00,CLR,,0.00,WeatherDisplay:10.37,2013-03-23 14:44:00,
2013-03-23 10:49:00,44.3,18.3,29.39,NNE,30,2.3,0.0,35,0.00,CLR,,0.00,WeatherDisplay:10.37,2013-03-23 14:49:00,
2013-03-23 10:54:00,44.5,18.5,29.39,NNE,31,1.1,0.0,35,0.00,CLR,,0.00,WeatherDisplay:10.37,2013-03-23 14:54:00,
2013-03-23 10:59:00,44.6,18.6,29.39,NNE,16,3.5,3.5,35,0.00,CLR,,0.00,WeatherDisplay:10.37,2013-03-23 14:59:00,
2013-03-23 11:04:00,44.6,18.6,29.39,North,3,4.6,4.6,35,0.00,CLR,,0.00,WeatherDisplay:10.37,2013-03-23 15:04:00,
2013-03-23 11:09:00,44.6,18.6,29.39,NNE,21,3.5,3.5,35,0.00,CLR,,0.00,WeatherDisplay:10.37,2013-03-23 15:09:00,
2013-03-23 11:14:00,44.5,19.2,29.38,NNE,21,0.0,0.0,36,0.00,CLR,,0.00,WeatherDisplay:10.37,2013-03-23 15:14:00,
2013-03-23 11:19:00,44.6,18.6,29.38,NNE,21,0.0,0.0,35,0.00,CLR,,0.00,WeatherDisplay:10.37,2013-03-23 15:19:00,
2013-03-23 11:24:00,44.8,19.4,29.38,NNE,21,0.0,0.0,36,0.00,CLR,,0.00,WeatherDisplay:10.37,2013-03-23 15:24:00,
2013-03-23 11:29:00,45.1,19.0,29.38,NNE,21,2.3,2.3,35,0.00,CLR,,0.00,WeatherDisplay:10.37,2013-03-23 15:29:00,
2013-03-23 11:34:00,45.1,17.7,29.38,North,0,2.3,2.3,33,0.00,CLR,,0.00,WeatherDisplay:10.37,2013-03-23 15:34:00,
2013-03-23 11:39:00,45.2,18.5,29.38,North,1,3.5,3.5,34,0.00,CLR,,0.00,WeatherDisplay:10.37,2013-03-23 15:39:00,
2013-03-23 11:44:00,45.4,17.9,29.38,North,1,0.0,0.0,33,0.00,CLR,,0.00,WeatherDisplay:10.37,2013-03-23 15:44:00,
2013-03-23 11:49:00,45.4,17.2,29.38,North,1,0.0,0.0,32,0.00,CLR,,0.00,WeatherDisplay:10.37,2013-03-23 15:49:00,
2013-03-23 11:54:00,45.7,18.2,29.38,North,1,0.0,0.0,33,0.00,CLR,,0.00,WeatherDisplay:10.37,2013-03-23 15:54:00,
2013-03-23 11:59:00,46.0,19.8,29.38,North,0,2.0,2.0,35,0.00,CLR,,0.00,WeatherDisplay:10.37,2013-03-23 15:59:00,
2013-03-23 12:04:00,46.2,17.9,29.38,North,0,0.0,0.0,32,0.00,CLR,,0.00,WeatherDisplay:10.37,2013-03-23 16:04:00,
2013-03-23 12:09:00,46.5,18.9,29.38,North,0,2.3,0.0,33,0.00,CLR,,0.00,WeatherDisplay:10.37,2013-03-23 16:09:00,
2013-03-23 12:14:00,46.5,17.4,29.37,North,0,0.0,0.0,31,0.00,CLR,,0.00,WeatherDisplay:10.37,2013-03-23 16:14:00,
2013-03-23 12:19:00,47.0,18.6,29.37,North,0,0.0,0.0,32,0.00,CLR,,0.00,WeatherDisplay:10.37,2013-03-23 16:19:00,
2013-03-23 12:24:00,46.8,19.9,29.37,West,270,3.5,3.5,34,0.00,CLR,,0.00,WeatherDisplay:10.37,2013-03-23 16:24:00,
2013-03-23 12:29:00,46.7,19.1,29.37,West,265,3.5,3.5,33,0.00,CLR,,0.00,WeatherDisplay:10.37,2013-03-23 16:29:00,
2013-03-23 12:34:00,47.0,17.9,29.37,West,265,2.3,2.3,31,0.00,CLR,,0.00,WeatherDisplay:10.37,2013-03-23 16:34:00,
2013-03-23 12:39:00,47.1,18.0,29.37,West,265,0.0,0.0,31,0.00,CLR,,0.00,WeatherDisplay:10.37,2013-03-23 16:39:00,
2013-03-23 12:44:00,47.3,18.1,29.36,NW,319,2.3,2.3,31,0.00,CLR,,0.00,WeatherDisplay:10.37,2013-03-23 16:44:00,
2013-03-23 12:49:00,47.6,18.4,29.36,NW,325,1.1,1.1,31,0.00,CLR,,0.00,WeatherDisplay:10.37,2013-03-23 16:49:00,
2013-03-23 12:54:00,47.9,17.9,29.36,NW,316,2.3,2.3,30,0.00,CLR,,0.00,WeatherDisplay:10.37,2013-03-23 16:54:00,
2013-03-23 12:59:00,47.7,17.7,29.35,NNW,329,0.0,0.0,30,0.00,CLR,,0.00,WeatherDisplay:10.37,2013-03-23 16:59:00,
2013-03-23 13:04:00,47.9,18.7,29.35,NNW,329,0.0,0.0,31,0.00,CLR,,0.00,WeatherDisplay:10.37,2013-03-23 17:04:00,
2013-03-23 13:09:00,48.2,18.2,29.35,North,0,3.5,3.5,30,0.00,CLR,,0.00,WeatherDisplay:10.37,2013-03-23 17:09:00,
2013-03-23 13:14:00,48.2,18.9,29.35,North,0,0.0,0.0,31,0.00,CLR,,0.00,WeatherDisplay:10.37,2013-03-23 17:14:00,
2013-03-23 13:19:00,48.2,18.9,29.35,NE,52,1.1,1.1,31,0.00,CLR,,0.00,WeatherDisplay:10.37,2013-03-23 17:19:00,
2013-03-23 13:24:00,48.5,18.4,29.35,NE,52,2.3,2.3,30,0.00,CLR,,0.00,WeatherDisplay:10.37,2013-03-23 17:24:00,
2013-03-23 13:29:00,48.8,17.1,29.35,NE,42,0.0,0.0,28,0.00,CLR,,0.00,WeatherDisplay:10.37,2013-03-23 17:29:00,
2013-03-23 13:34:00,48.8,17.1,29.35,North,357,3.5,3.5,28,0.00,CLR,,0.00,WeatherDisplay:10.37,2013-03-23 17:34:00,
2013-03-23 13:39:00,48.9,18.0,29.35,NNW,337,4.6,4.6,29,0.00,CLR,,0.00,WeatherDisplay:10.37,2013-03-23 17:39:00,
2013-03-23 13:44:00,48.8,17.1,29.35,WNW,302,3.5,3.5,28,0.00,CLR,,0.00,WeatherDisplay:10.37,2013-03-23 17:44:00,
2013-03-23 13:49:00,48.6,16.9,29.35,WNW,295,0.0,0.0,28,0.00,CLR,,0.00,WeatherDisplay:10.37,2013-03-23 17:49:00,
2013-03-23 13:54:00,48.9,17.2,29.35,WSW,253,0.0,0.0,28,0.00,CLR,,0.00,WeatherDisplay:10.37,2013-03-23 17:54:00,
2013-03-23 13:59:00,49.4,17.6,29.34,WSW,253,0.0,0.0,28,0.00,CLR,,0.00,WeatherDisplay:10.37,2013-03-23 17:59:00,
2013-03-23 14:04:00,49.6,16.9,29.34,WSW,253,0.0,0.0,27,0.00,CLR,,0.00,WeatherDisplay:10.37,2013-03-23 18:04:00,
2013-03-23 14:09:00,49.5,16.9,29.34,West,270,4.6,4.6,27,0.00,CLR,,0.00,WeatherDisplay:10.37,2013-03-23 18:09:00,
2013-03-23 14:14:00,49.2,16.6,29.33,West,277,5.8,5.8,27,0.00,CLR,,0.00,WeatherDisplay:10.37,2013-03-23 18:14:00,
2013-03-23 14:19:00,49.2,16.6,29.33,WNW,291,1.1,1.1,27,0.00,CLR,,0.00,WeatherDisplay:10.37,2013-03-23 18:19:00,
2013-03-23 14:24:00,49.6,16.1,29.33,WNW,285,0.0,0.0,26,0.00,CLR,,0.00,WeatherDisplay:10.37,2013-03-23 18:24:00,
2013-03-23 14:29:00,50.4,16.8,29.33,WNW,292,3.5,3.5,26,0.00,CLR,,0.00,WeatherDisplay:10.37,2013-03-23 18:29:00,
2013-03-23 14:34:00,51.0,18.1,29.33,North,10,2.0,2.0,27,0.00,CLR,,0.00,WeatherDisplay:10.37,2013-03-23 18:34:00,
2013-03-23 14:39:00,51.6,18.7,29.33,NW,304,6.9,6.9,27,0.00,CLR,,0.00,WeatherDisplay:10.37,2013-03-23 18:39:00,
2013-03-23 14:44:00,51.7,19.6,29.32,WSW,241,3.5,3.5,28,0.00,CLR,,0.00,WeatherDisplay:10.37,2013-03-23 18:44:00,
2013-03-23 14:49:00,52.2,19.2,29.32,WNW,302,0.0,0.0,27,0.00,CLR,,0.00,WeatherDisplay:10.37,2013-03-23 18:49:00,
2013-03-23 14:54:00,51.7,18.7,29.32,SW,232,8.1,8.1,27,0.00,CLR,,0.00,WeatherDisplay:10.37,2013-03-23 18:54:00,
2013-03-23 14:59:00,51.0,19.0,29.32,West,260,0.0,0.0,28,0.00,CLR,,0.00,WeatherDisplay:10.37,2013-03-23 18:59:00,
2013-03-23 15:04:00,51.3,19.3,29.32,West,260,2.3,2.3,28,0.00,CLR,,0.00,WeatherDisplay:10.37,2013-03-23 19:04:00,
2013-03-23 15:10:00,51.1,19.1,29.32,WSW,258,5.8,5.8,28,0.00,CLR,,0.00,WeatherDisplay:10.37,2013-03-23 19:10:00,
2013-03-23 15:15:00,51.0,21.4,29.31,NNW,332,5.8,5.8,31,0.00,CLR,,0.00,WeatherDisplay:10.37,2013-03-23 19:15:00,
2013-03-23 15:20:00,51.0,19.8,29.31,West,270,8.1,8.1,29,0.00,CLR,,0.00,WeatherDisplay:10.37,2013-03-23 19:20:00,
2013-03-23 15:25:00,50.5,19.4,29.31,West,263,5.8,5.8,29,0.00,CLR,,0.00,WeatherDisplay:10.37,2013-03-23 19:25:00,
2013-03-23 15:30:00,50.4,20.9,29.31,WSW,253,0.0,0.0,31,0.00,CLR,,0.00,WeatherDisplay:10.37,2013-03-23 19:30:00,
2013-03-23 15:35:00,50.8,20.4,29.31,WSW,256,1.1,0.0,30,0.00,CLR,,0.00,WeatherDisplay:10.37,2013-03-23 19:35:00,
2013-03-23 15:40:00,51.4,22.5,29.31,WNW,289,0.0,0.1,32,0.00,CLR,,0.00,WeatherDisplay:10.37,2013-03-23 19:40:00,
2013-03-23 15:45:00,51.6,21.1,29.30,SSE,168,2.3,0.0,30,0.00,CLR,,0.00,WeatherDisplay:10.37,2013-03-23 19:45:00,
2013-03-23 15:50:00,52.0,20.7,29.30,NW,312,0.0,0.0,29,0.00,CLR,,0.00,WeatherDisplay:10.37,2013-03-23 19:50:00,
2013-03-23 15:55:00,52.3,20.1,29.30,WSW,254,6.9,6.9,28,0.00,CLR,,0.00,WeatherDisplay:10.37,2013-03-23 19:55:00,
2013-03-23 16:00:00,51.6,21.1,29.29,WSW,257,5.8,5.8,30,0.00,CLR,,0.00,WeatherDisplay:10.37,2013-03-23 20:00:00,
2013-03-23 16:05:00,51.6,21.9,29.29,WNW,292,5.8,5.8,31,0.00,CLR,,0.00,WeatherDisplay:10.37,2013-03-23 20:05:00,
2013-03-23 16:10:00,52.0,20.7,29.29,WNW,292,2.3,2.3,29,0.00,CLR,,0.00,WeatherDisplay:10.37,2013-03-23 20:10:00,
2013-03-23 16:15:00,52.5,21.1,29.28,West,261,3.0,3.0,29,0.00,CLR,,0.00,WeatherDisplay:10.37,2013-03-23 20:15:00,
2013-03-23 16:20:00,52.8,22.2,29.28,SW,226,0.0,0.0,30,0.00,CLR,,0.00,WeatherDisplay:10.37,2013-03-23 20:20:00,
2013-03-23 16:25:00,53.3,22.6,29.28,WSW,248,3.0,3.0,30,0.00,CLR,,0.00,WeatherDisplay:10.37,2013-03-23 20:25:00,
2013-03-23 16:30:00,53.6,22.1,29.28,WNW,301,3.5,3.5,29,0.00,CLR,,0.00,WeatherDisplay:10.37,2013-03-23 20:30:00,
2013-03-23 16:35:00,53.3,22.6,29.28,West,271,5.8,5.8,30,0.00,CLR,,0.00,WeatherDisplay:10.37,2013-03-23 20:35:00,
2013-03-23 16:40:00,53.2,23.3,29.28,SW,230,5.0,5.0,31,0.00,CLR,,0.00,WeatherDisplay:10.37,2013-03-23 20:40:00,
2013-03-23 16:45:00,53.1,22.4,29.28,SW,222,1.1,0.0,30,0.00,CLR,,0.00,WeatherDisplay:10.37,2013-03-23 20:45:00,
2013-03-23 16:50:00,53.3,23.4,29.28,SW,220,0.0,0.0,31,0.00,CLR,,0.00,WeatherDisplay:10.37,2013-03-23 20:50:00,
2013-03-23 16:55:00,53.2,22.5,29.28,West,264,5.8,5.8,30,0.00,CLR,,0.00,WeatherDisplay:10.37,2013-03-23 20:55:00,
2013-03-23 17:00:00,53.3,24.2,29.28,WSW,241,2.3,0.0,32,0.00,CLR,,0.00,WeatherDisplay:10.37,2013-03-23 21:00:00,
2013-03-23 17:05:00,53.5,22.8,29.28,NW,308,1.1,0.0,30,0.00,CLR,,0.00,WeatherDisplay:10.37,2013-03-23 21:05:00,
2013-03-23 17:10:00,53.8,24.6,29.28,WSW,243,2.3,2.3,32,0.00,CLR,,0.00,WeatherDisplay:10.37,2013-03-23 21:10:00,
2013-03-23 17:15:00,53.6,24.4,29.28,West,261,4.6,4.6,32,0.00,CLR,,0.00,WeatherDisplay:10.37,2013-03-23 21:15:00,
2013-03-23 17:20:00,53.1,24.0,29.28,WNW,292,2.3,2.3,32,0.00,CLR,,0.00,WeatherDisplay:10.37,2013-03-23 21:20:00,
2013-03-23 17:25:00,52.9,23.0,29.28,NW,308,1.1,1.1,31,0.00,CLR,,0.00,WeatherDisplay:10.37,2013-03-23 21:25:00,
2013-03-23 17:30:00,52.9,24.5,29.28,SW,224,5.8,5.8,33,0.00,CLR,,0.00,WeatherDisplay:10.37,2013-03-23 21:30:00,
2013-03-23 17:35:00,53.1,24.7,29.28,SW,222,1.1,0.0,33,0.00,CLR,,0.00,WeatherDisplay:10.37,2013-03-23 21:35:00,
2013-03-23 17:40:00,52.9,23.0,29.28,SW,227,0.0,0.0,31,0.00,CLR,,0.00,WeatherDisplay:10.37,2013-03-23 21:40:00,
2013-03-23 17:45:00,53.3,23.4,29.26,SW,227,0.0,0.0,31,0.00,CLR,,0.00,WeatherDisplay:10.37,2013-03-23 21:45:00,
2013-03-23 17:50:00,54.1,26.3,29.26,SW,233,3.0,3.0,34,0.00,CLR,,0.00,WeatherDisplay:10.37,2013-03-23 21:50:00,
2013-03-23 17:55:00,53.8,23.1,29.26,SW,229,5.8,5.8,30,0.00,CLR,,0.00,WeatherDisplay:10.37,2013-03-23 21:55:00,
2013-03-23 18:00:00,53.6,22.9,29.26,WSW,246,0.0,0.0,30,0.00,CLR,,0.00,WeatherDisplay:10.37,2013-03-23 22:00:00,
2013-03-23 18:05:00,54.1,23.3,29.26,WSW,239,2.3,2.3,30,0.00,CLR,,0.00,WeatherDisplay:10.37,2013-03-23 22:05:00,
2013-03-23 18:10:00,54.2,24.9,29.26,WSW,239,1.1,0.0,32,0.00,CLR,,0.00,WeatherDisplay:10.37,2013-03-23 22:10:00,
2013-03-23 18:15:00,54.2,24.2,29.26,WSW,239,0.0,0.0,31,0.00,CLR,,0.00,WeatherDisplay:10.37,2013-03-23 22:15:00,
2013-03-23 18:20:00,54.1,24.1,29.26,WSW,241,0.0,0.0,31,0.00,CLR,,0.00,WeatherDisplay:10.37,2013-03-23 22:20:00,
2013-03-23 18:25:00,54.1,25.6,29.26,WSW,241,0.0,0.0,33,0.00,CLR,,0.00,WeatherDisplay:10.37,2013-03-23 22:25:00,
2013-03-23 18:30:00,54.2,27.1,29.26,WSW,241,0.0,0.0,35,0.00,CLR,,0.00,WeatherDisplay:10.37,2013-03-23 22:30:00,
2013-03-23 18:35:00,54.2,24.9,29.26,WSW,241,0.0,0.0,32,0.00,CLR,,0.00,WeatherDisplay:10.37,2013-03-23 22:35:00,
2013-03-23 18:40:00,54.2,24.9,29.25,WSW,244,2.3,2.3,32,0.00,CLR,,0.00,WeatherDisplay:10.37,2013-03-23 22:40:00,
2013-03-23 18:45:00,53.8,26.1,29.25,WSW,244,1.1,1.1,34,0.00,CLR,,0.00,WeatherDisplay:10.37,2013-03-23 22:45:00,
2013-03-23 18:50:00,53.3,25.6,29.25,WSW,244,2.3,2.3,34,0.00,CLR,,0.00,WeatherDisplay:10.37,2013-03-23 22:50:00,
2013-03-23 18:55:00,53.1,26.1,29.25,WSW,244,0.0,0.0,35,0.00,CLR,,0.00,WeatherDisplay:10.37,2013-03-23 22:55:00,
2013-03-23 19:00:00,52.9,24.5,29.25,WSW,244,0.0,0.0,33,0.00,CLR,,0.00,WeatherDisplay:10.37,2013-03-23 23:00:00,
2013-03-23 19:05:00,52.8,27.2,29.25,WSW,244,0.0,0.0,37,0.00,CLR,,0.00,WeatherDisplay:10.37,2013-03-23 23:05:00,
2013-03-23 19:10:00,52.6,27.7,29.25,WSW,244,0.0,0.0,38,0.00,CLR,,0.00,WeatherDisplay:10.37,2013-03-23 23:10:00,
2013-03-23 19:15:00,52.3,27.4,29.25,WSW,244,0.0,0.0,38,0.00,CLR,,0.00,WeatherDisplay:10.37,2013-03-23 23:15:00,
2013-03-23 19:20:00,51.9,26.4,29.25,WSW,244,0.0,0.0,37,0.00,CLR,,0.00,WeatherDisplay:10.37,2013-03-23 23:20:00,
2013-03-23 19:25:00,51.7,26.9,29.25,WSW,244,0.0,0.0,38,0.00,CLR,,0.00,WeatherDisplay:10.37,2013-03-23 23:25:00,
2013-03-23 19:30:00,51.4,26.6,29.25,WSW,244,0.0,0.0,38,0.00,CLR,,0.00,WeatherDisplay:10.37,2013-03-23 23:30:00,
2013-03-23 19:35:00,51.1,26.3,29.25,WSW,244,0.0,0.0,38,0.00,CLR,,0.00,WeatherDisplay:10.37,2013-03-23 23:35:00,
2013-03-23 19:40:00,50.7,26.6,29.26,WSW,244,0.0,0.0,39,0.00,CLR,,0.00,WeatherDisplay:10.37,2013-03-23 23:40:00,
2013-03-23 19:45:00,50.4,27.0,29.26,WSW,244,0.0,0.0,40,0.00,CLR,,0.00,WeatherDisplay:10.37,2013-03-23 23:45:00,
2013-03-23 19:50:00,49.6,27.4,29.26,WSW,244,0.0,0.2,42,0.00,CLR,,0.00,WeatherDisplay:10.37,2013-03-23 23:50:00,
2013-03-23 19:55:00,48.9,27.9,29.26,WSW,244,0.0,0.0,44,0.00,CLR,,0.00,WeatherDisplay:10.37,2013-03-23 23:55:00,
2013-03-23 20:00:00,48.5,27.6,29.26,WSW,244,0.0,0.0,44,0.00,CLR,,0.00,WeatherDisplay:10.37,2013-03-24 00:00:00,
2013-03-23 20:05:00,48.0,27.1,29.26,WSW,244,0.0,0.0,44,0.00,CLR,,0.00,WeatherDisplay:10.37,2013-03-24 00:05:00,
2013-03-23 20:10:00,47.9,27.6,29.27,WSW,244,0.0,0.0,45,0.00,CLR,,0.00,WeatherDisplay:10.37,2013-03-24 00:10:00,
2013-03-23 20:15:00,47.6,27.8,29.27,WSW,244,0.0,0.0,46,0.00,CLR,,0.00,WeatherDisplay:10.37,2013-03-24 00:15:00,
2013-03-23 20:20:00,47.1,28.9,29.27,WSW,244,0.0,0.0,49,0.00,CLR,,0.00,WeatherDisplay:10.37,2013-03-24 00:20:00,
2013-03-23 20:25:00,46.7,28.0,29.28,WSW,244,0.0,0.0,48,0.00,CLR,,0.00,WeatherDisplay:10.37,2013-03-24 00:25:00,
2013-03-23 20:30:00,46.2,28.1,29.28,WSW,244,0.0,0.0,49,0.00,CLR,,0.00,WeatherDisplay:10.37,2013-03-24 00:30:00,
2013-03-23 20:35:00,46.1,27.5,29.28,WSW,244,0.0,0.0,48,0.00,CLR,,0.00,WeatherDisplay:10.37,2013-03-24 00:35:00,
2013-03-23 20:40:00,46.2,27.1,29.28,WSW,244,0.0,0.0,47,0.00,CLR,,0.00,WeatherDisplay:10.37,2013-03-24 00:40:00,
2013-03-23 20:45:00,46.5,27.3,29.28,WSW,244,1.1,0.0,47,0.00,CLR,,0.00,WeatherDisplay:10.37,2013-03-24 00:45:00,
2013-03-23 20:50:00,47.1,27.4,29.28,WSW,240,0.0,0.0,46,0.00,CLR,,0.00,WeatherDisplay:10.37,2013-03-24 00:50:00,
2013-03-23 20:55:00,47.0,27.8,29.28,WSW,240,0.0,0.0,47,0.00,CLR,,0.00,WeatherDisplay:10.37,2013-03-24 00:55:00,
2013-03-23 21:00:00,46.4,28.3,29.28,WSW,240,0.0,0.0,49,0.00,CLR,,0.00,WeatherDisplay:10.37,2013-03-24 01:00:00,
2013-03-23 21:05:00,46.1,27.5,29.28,WSW,240,0.0,0.0,48,0.00,CLR,,0.00,WeatherDisplay:10.37,2013-03-24 01:05:00,
2013-03-23 21:10:00,46.0,27.4,29.29,WSW,240,0.0,0.0,48,0.00,CLR,,0.00,WeatherDisplay:10.37,2013-03-24 01:10:00,
2013-03-23 21:15:00,46.2,27.1,29.29,WSW,239,3.0,3.0,47,0.00,CLR,,0.00,WeatherDisplay:10.37,2013-03-24 01:15:00,
2013-03-23 21:20:00,46.7,27.0,29.29,WSW,240,0.0,0.0,46,0.00,CLR,,0.00,WeatherDisplay:10.37,2013-03-24 01:20:00,
2013-03-23 21:25:00,46.5,28.3,29.29,WSW,240,0.0,0.0,49,0.00,CLR,,0.00,WeatherDisplay:10.37,2013-03-24 01:25:00,
2013-03-23 21:30:00,46.1,28.5,29.29,WSW,240,0.0,0.0,50,0.00,CLR,,0.00,WeatherDisplay:10.37,2013-03-24 01:30:00,
2013-03-23 21:35:00,45.7,27.6,29.29,WSW,240,0.0,0.0,49,0.00,CLR,,0.00,WeatherDisplay:10.37,2013-03-24 01:35:00,
2013-03-23 21:40:00,46.0,26.9,29.29,WSW,240,2.3,2.3,47,0.00,CLR,,0.00,WeatherDisplay:10.37,2013-03-24 01:40:00,
2013-03-23 21:45:00,46.7,26.5,29.29,WSW,237,0.0,0.0,45,0.00,CLR,,0.00,WeatherDisplay:10.37,2013-03-24 01:45:00,
2013-03-23 21:50:00,47.0,27.3,29.29,WSW,237,0.0,0.0,46,0.00,CLR,,0.00,WeatherDisplay:10.37,2013-03-24 01:50:00,
2013-03-23 21:55:00,46.8,27.1,29.31,SW,234,1.1,1.1,46,0.00,CLR,,0.00,WeatherDisplay:10.37,2013-03-24 01:55:00,
2013-03-23 22:00:00,47.1,26.8,29.31,SW,230,3.5,3.5,45,0.00,CLR,,0.00,WeatherDisplay:10.37,2013-03-24 02:00:00,
2013-03-23 22:05:00,47.4,27.1,29.31,SW,215,4.6,4.6,45,0.00,CLR,,0.00,WeatherDisplay:10.37,2013-03-24 02:05:00,
2013-03-23 22:10:00,47.4,27.1,29.31,SSW,209,0.0,0.0,45,0.00,CLR,,0.00,WeatherDisplay:10.37,2013-03-24 02:10:00,
2013-03-23 22:15:00,46.8,28.1,29.31,SSW,209,1.1,1.1,48,0.00,CLR,,0.00,WeatherDisplay:10.37,2013-03-24 02:15:00,
2013-03-23 22:20:00,46.2,27.6,29.31,SSW,209,0.0,0.0,48,0.00,CLR,,0.00,WeatherDisplay:10.37,2013-03-24 02:20:00,
2013-03-23 22:25:00,46.4,27.8,29.31,WSW,257,5.8,5.8,48,0.00,CLR,,0.00,WeatherDisplay:10.37,2013-03-24 02:25:00,
2013-03-23 22:30:00,46.2,27.6,29.31,WSW,257,0.0,0.0,48,0.00,CLR,,0.00,WeatherDisplay:10.37,2013-03-24 02:30:00,
2013-03-23 22:35:00,46.1,28.0,29.31,WSW,251,0.0,0.0,49,0.00,CLR,,0.00,WeatherDisplay:10.37,2013-03-24 02:35:00,
2013-03-23 22:40:00,46.0,28.4,29.31,WSW,251,2.3,2.3,50,0.00,CLR,,0.00,WeatherDisplay:10.37,2013-03-24 02:40:00,
2013-03-23 22:45:00,45.7,28.1,29.31,WSW,253,0.0,0.0,50,0.00,CLR,,0.00,WeatherDisplay:10.37,2013-03-24 02:45:00,
2013-03-23 22:50:00,45.5,27.9,29.31,SW,223,0.0,0.0,50,0.00,CLR,,0.00,WeatherDisplay:10.37,2013-03-24 02:50:00,
2013-03-23 22:55:00,45.2,28.1,29.30,SW,230,0.0,0.0,51,0.00,CLR,,0.00,WeatherDisplay:10.37,2013-03-24 02:55:00,
2013-03-23 23:00:00,45.1,28.0,29.30,SW,215,4.6,4.6,51,0.00,CLR,,0.00,WeatherDisplay:10.37,2013-03-24 03:00:00,
2013-03-23 23:05:00,45.1,28.0,29.30,West,263,0.0,0.0,51,0.00,CLR,,0.00,WeatherDisplay:10.37,2013-03-24 03:05:00,
2013-03-23 23:10:00,45.1,28.0,29.30,WSW,241,1.1,1.1,51,0.00,CLR,,0.00,WeatherDisplay:10.37,2013-03-24 03:10:00,
2013-03-23 23:15:00,44.9,27.8,29.30,WSW,241,0.0,0.0,51,0.00,CLR,,0.00,WeatherDisplay:10.37,2013-03-24 03:15:00,
2013-03-23 23:20:00,44.8,27.8,29.30,WSW,241,0.0,0.0,51,0.00,CLR,,0.00,WeatherDisplay:10.37,2013-03-24 03:20:00,
2013-03-23 23:25:00,44.5,27.5,29.28,WSW,241,0.0,0.0,51,0.00,CLR,,0.00,WeatherDisplay:10.37,2013-03-24 03:25:00,
2013-03-23 23:30:00,44.1,28.0,29.28,WSW,241,0.0,0.0,53,0.00,CLR,,0.00,WeatherDisplay:10.37,2013-03-24 03:30:00,
2013-03-23 23:35:00,43.8,28.2,29.28,WSW,241,0.0,0.0,54,0.00,CLR,,0.00,WeatherDisplay:10.37,2013-03-24 03:35:00,
2013-03-23 23:40:00,43.5,27.5,29.27,WSW,241,0.0,0.0,53,0.00,CLR,,0.00,WeatherDisplay:10.37,2013-03-24 03:40:00,
2013-03-23 23:45:00,43.3,27.8,29.27,WSW,241,0.0,0.0,54,0.00,CLR,,0.00,WeatherDisplay:10.37,2013-03-24 03:45:00,
2013-03-23 23:50:00,43.1,27.6,29.27,WSW,241,0.0,0.0,54,0.00,CLR,,0.00,WeatherDisplay:10.37,2013-03-24 03:50:00,
2013-03-23 23:55:00,43.1,27.1,29.26,WSW,241,0.0,0.0,53,0.00,CLR,,0.00,WeatherDisplay:10.37,2013-03-24 03:55:00,